Location: Bailleul
(50.3375°N, 2.8513°E)
Time: 14:13:48
(UTC+00:00)

Cosmos 1455 - Pass Details

Date: 16 June 2021
Orbit: 496 x 521 km, 82.5° (Epoch: 04 August)

Event Time Altitude Azimuth Distance (km) Brightness Sun altitude
Rises 23:29:53 0° 343° (NNW) 2,655 7.4 -16.2°
Reaches altitude 10° 23:32:08 10° 335° (NNW) 1,758 6.0 -16.2°
Maximum altitude 23:35:42 37° 267° (W) 812 3.1 -16.2°
Enters shadow 23:37:15 25° 220° (SW) 1,056 3.3 -16.2°
